N4877P KFFA-KMQI

Flight info

Callsign N4877P
Flight time 0h -6m
Altitude 1500
Route KMQI
Aircraft C172/L-SDFG/C

Departure

Time 2026-05-07 00:07
Airport First Flight Airport (KFFA)

Arrival

Time 2026-05-07 00:01
Airport Dare County Regional Airport (KMQI)
Time Latitude Longitude Altitude Speed Heading
2026-05-07 00:00 36.01411 -75.67168 11 ft 0 kts 14°
2026-05-07 00:04 36.01425 -75.67166 11 ft 6 kts 359°
2026-05-07 00:04 36.01478 -75.67234 10 ft 12 kts 328°
2026-05-07 00:04 36.01586 -75.67212 10 ft 21 kts 13°
2026-05-07 00:05 36.01774 -75.67150 10 ft 33 kts 14°
2026-05-07 00:05 36.02021 -75.67067 7 ft 35 kts 15°
2026-05-07 00:05 36.02096 -75.66996 7 ft 8 kts 39°
2026-05-07 00:05 36.02148 -75.67011 7 ft 9 kts 282°
2026-05-07 00:06 36.02045 -75.67064 7 ft 36 kts 193°
2026-05-07 00:06 36.01664 -75.67187 20 ft 69 kts 194°
2026-05-07 00:06 36.01260 -75.67082 225 ft 73 kts 108°
2026-05-07 00:06 36.01644 -75.66745 288 ft 76 kts 295°
2026-05-07 00:07 36.01479 -75.67147 310 ft 71 kts 190°
2026-05-07 00:07 36.00997 -75.67204 473 ft 68 kts 193°
2026-05-07 00:07 36.00526 -75.67371 594 ft 72 kts 200°
2026-05-07 00:07 36.00071 -75.67545 769 ft 67 kts 198°
2026-05-07 00:08 35.99630 -75.67704 929 ft 64 kts 201°
2026-05-07 00:08 35.99203 -75.67855 1108 ft 61 kts 201°
2026-05-07 00:08 35.98803 -75.68002 1272 ft 59 kts 200°
2026-05-07 00:08 35.98419 -75.68134 1431 ft 56 kts 200°
2026-05-07 00:09 35.98024 -75.68083 1581 ft 69 kts 166°
2026-05-07 00:09 35.97588 -75.67589 1518 ft 96 kts 155°
2026-05-07 00:09 35.97068 -75.66930 1402 ft 116 kts 144°
2026-05-07 00:09 35.96435 -75.66494 1347 ft 97 kts 189°
2026-05-07 00:10 35.95796 -75.66653 1351 ft 89 kts 198°
2026-05-07 00:10 35.95272 -75.66866 1342 ft 71 kts 210°
2026-05-07 00:10 35.94859 -75.67105 1271 ft 67 kts 211°
2026-05-07 00:10 35.94436 -75.67405 1027 ft 70 kts 217°
2026-05-07 00:11 35.93998 -75.67688 765 ft 73 kts 210°
2026-05-07 00:11 35.93581 -75.67984 617 ft 63 kts 213°
2026-05-07 00:11 35.93272 -75.68279 498 ft 53 kts 219°
2026-05-07 00:11 35.92994 -75.68545 361 ft 44 kts 223°
2026-05-07 00:12 35.92758 -75.68784 192 ft 45 kts 213°
2026-05-07 00:12 35.92503 -75.69014 66 ft 45 kts 219°
2026-05-07 00:12 35.92242 -75.69262 27 ft 47 kts 219°
2026-05-07 00:12 35.92010 -75.69491 10 ft 36 kts 218°
2026-05-07 00:13 35.91902 -75.69617 8 ft 11 kts 278°
2026-05-07 00:13 35.91910 -75.69688 9 ft 6 kts 271°
2026-05-07 00:13 35.91895 -75.69727 9 ft 4 kts 222°
2026-05-07 00:13 35.91862 -75.69759 8 ft 8 kts 219°
2026-05-07 00:14 35.91802 -75.69816 7 ft 13 kts 218°
2026-05-07 00:14 35.91721 -75.69895 7 ft 15 kts 217°
2026-05-07 00:14 35.91696 -75.69950 7 ft 0 kts 304°
2026-05-07 00:14 35.91693 -75.69966 7 ft 7 kts 225°
2026-05-07 00:15 35.91693 -75.69995 7 ft 0 kts 323°